Simultaneous Nadir Overpasses (SNOs) Predictions

Prediction of SNOs between NOAA-20 and AQUA Satellite Orbit:

Table of predicted SNOs for the next 14.0 days since TLE Epoch: 8/7/2021
Index Date (NOAA-20) Time (NOAA-20) Lat,Lon (NOAA-20) SZA (NOAA-20 ) Date (AQUA) Time (AQUA) Lat,Lon (AQUA) SZA (AQUA ) Distance(km) Time Diff (sec)
1 08/08/2021 21:23:01 -75.43, -83.68 97.32 08/08/2021 21:24:06 -75.43, -83.64 97.39 1.08 65
2 08/08/2021 22:13:21 76.54, 87.39 81.32 08/08/2021 22:13:09 76.54, 87.41 81.33 0.56 12
3 08/11/2021 13:39:42 -76.08, 34.20 97.37 08/11/2021 13:40:22 -76.07, 34.12 97.38 2.32 40
4 08/11/2021 14:30:11 76.71,-156.17 81.85 08/11/2021 14:29:33 76.72,-156.08 81.86 2.42 38
5 08/14/2021 05:56:31 -76.30, 150.76 96.87 08/14/2021 05:56:45 -76.30, 150.75 96.88 0.40 14
6 08/14/2021 06:46:53 77.28, -38.07 81.89 08/14/2021 06:45:50 77.27, -38.16 81.96 2.24 63
7 08/16/2021 21:22:56 75.57, 96.75 84.82 08/16/2021 21:24:01 75.57, 96.75 84.77 0.17 65
8 08/16/2021 22:13:21 -76.52, -92.66 96.35 08/16/2021 22:13:09 -76.53, -92.62 96.35 1.02 12
9 08/19/2021 13:39:44 75.89,-146.45 85.25 08/19/2021 13:40:23 75.89,-146.42 85.21 0.67 39



Historial Predications of SNOs between NOAA-20 and AQUA
